DG3SMA-4 Weather Reports


time (UTC)temp
C
wind
direction
speed
KPH
gust
KPH
rain 1hr
cm
rain 24hr
cm
rain mn
cm
humidity
%
barometer
mb
20190424121507 23 110 22.5 22.5 0.00 0.00 0.00 42 1008.7
20190424121007 23 110 22.5 22.5 0.00 0.00 0.00 42 1007.7
20190424120007 22 120 20.9 20.9 0.00 0.00 0.00 43 1007.7
20190424115512 22 120 20.9 20.9 0.00 0.00 0.00 42 1008.7
20190424115008 22 120 20.9 20.9 0.00 0.00 0.00 43 1008.7
20190424114507 22 120 20.9 20.9 0.00 0.00 0.00 43 1008.7
20190424114007 22 120 20.9 20.9 0.00 0.00 0.00 43 1008.7
20190424113508 22 120 20.9 22.5 0.00 0.00 0.00 43 1008.7
20190424113008 22 110 22.5 22.5 0.00 0.00 0.00 43 1008.7
20190424112507 22 110 22.5 22.5 0.00 0.00 0.00 43 1008.7
20190424112007 22 110 22.5 22.5 0.00 0.00 0.00 44 1008.7
20190424111507 22 110 22.5 22.5 0.00 0.00 0.00 43 1008.7
20190424111007 22 110 22.5 22.5 0.00 0.00 0.00 44 1008.7
20190424110007 21 120 20.9 20.9 0.00 0.00 0.00 44 1008.7
20190424105506 21 120 20.9 20.9 0.00 0.00 0.00 44 1008.7
20190424105007 21 120 20.9 20.9 0.00 0.00 0.00 45 1008.7
20190424104509 21 120 20.9 20.9 0.00 0.00 0.00 45 1008.7
20190424104008 21 120 20.9 20.9 0.00 0.00 0.00 44 1009.7
20190424103508 21 120 20.9 20.9 0.00 0.00 0.00 45 1009.7
20190424103007 21 140 20.9 20.9 0.00 0.00 0.00 46 1009.7
20190424102506 21 140 20.9 20.9 0.00 0.00 0.00 46 1009.7
20190424102007 21 140 20.9 20.9 0.00 0.00 0.00 46 1009.7
20190424101507 21 140 20.9 20.9 0.00 0.00 0.00 47 1009.7
20190424101007 21 140 20.9 22.5 0.00 0.00 0.00 48 1010.7
20190424100008 20 130 22.5 22.5 0.00 0.00 0.00 47 1010.7
20190424095507 20 130 22.5 22.5 0.00 0.00 0.00 49 1010.7
20190424095007 20 130 22.5 22.5 0.00 0.00 0.00 49 1010.7
20190424094507 20 130 22.5 22.5 0.00 0.00 0.00 49 1010.7
20190424094007 19 130 22.5 22.5 0.00 0.00 0.00 49 1009.7
20190424093506 19 130 22.5 22.5 0.00 0.00 0.00 50 1009.7
20190424093007 19 130 16.1 16.1 0.00 0.00 0.00 50 1009.7
20190424092506 19 130 16.1 16.1 0.00 0.00 0.00 51 1010.7
20190424092008 18 130 16.1 16.1 0.00 0.00 0.00 51 1010.7
20190424091007 18 130 16.1 20.9 0.00 0.00 0.00 52 1010.7
20190424090007 18 130 20.9 20.9 0.00 0.00 0.00 53 1010.7
20190424085508 18 130 20.9 20.9 0.00 0.00 0.00 55 1010.7
20190424085007 18 130 20.9 20.9 0.00 0.00 0.00 56 1010.7
20190424084509 18 130 20.9 20.9 0.00 0.00 0.00 56 1010.7
20190424084008 17 130 20.9 20.9 0.00 0.00 0.00 57 1009.7
20190424083508 17 130 20.9 20.9 0.00 0.00 0.00 56 1009.7
20190424083007 17 130 19.3 19.3 0.00 0.00 0.00 57 1009.7
20190424082507 17 130 19.3 19.3 0.00 0.00 0.00 57 1010.7
20190424082007 17 130 19.3 19.3 0.00 0.00 0.00 59 1010.7
20190424081507 17 130 19.3 19.3 0.00 0.00 0.00 59 1010.7
20190424081006 17 130 19.3 19.3 0.00 0.00 0.00 60 1009.7
20190424080007 16 140 19.3 19.3 0.00 0.00 0.00 63 1009.7
20190424075506 16 140 19.3 19.3 0.00 0.00 0.00 65 1008.7
20190424075010 16 140 19.3 19.3 0.00 0.00 0.00 65 1008.7
20190424074507 16 140 19.3 19.3 0.00 0.00 0.00 65 1008.7
20190424074007 16 140 19.3 19.3 0.00 0.00 0.00 67 1008.7
20190424073507 15 140 19.3 20.9 0.00 0.00 0.00 67 1008.7
20190424073007 15 130 20.9 20.9 0.00 0.00 0.00 68 1008.7
20190424072506 15 130 20.9 20.9 0.00 0.00 0.00 68 1007.7
20190424072007 15 130 20.9 20.9 0.00 0.00 0.00 68 1007.7
20190424071506 15 130 20.9 20.9 0.00 0.00 0.00 69 1007.7
20190424071007 15 130 20.9 20.9 0.00 0.00 0.00 69 1006.7
20190424070006 14 110 19.3 19.3 0.00 0.00 0.00 70 1006.7
20190424065506 14 110 19.3 19.3 0.00 0.00 0.00 71 1006.7
20190424065007 14 110 19.3 19.3 0.00 0.00 0.00 73 1006.7
20190424064507 13 110 19.3 19.3 0.00 0.00 0.00 74 1006.7
20190424064006 13 110 19.3 19.3 0.00 0.00 0.00 74 1006.7
20190424063506 13 110 19.3 19.3 0.00 0.00 0.00 76 1006.7
20190424063007 12 110 16.1 16.1 0.00 0.00 0.00 83 1006.7
20190424062506 12 110 16.1 16.1 0.00 0.00 0.00 83 1006.7
20190424062009 12 110 16.1 16.1 0.00 0.00 0.00 83 1006.7
20190424061507 12 110 16.1 16.1 0.00 0.00 0.00 83 1006.7
20190424061109 12 110 16.1 16.1 0.00 0.00 0.00 83 1006.7
20190424060006 12 100 14.5 14.5 0.00 0.00 0.00 83 1006.7
20190424055507 11 100 14.5 14.5 0.00 0.00 0.00 84 1006.7
20190424055007 11 100 14.5 14.5 0.00 0.00 0.00 84 1006.7
20190424054507 11 100 14.5 14.5 0.00 0.00 0.00 85 1006.7
20190424054007 11 100 14.5 14.5 0.00 0.00 0.00 85 1006.7
20190424053506 11 100 14.5 14.5 0.00 0.00 0.00 85 1006.7
20190424053008 11 100 11.3 11.3 0.00 0.00 0.00 86 1006.7
20190424052506 11 100 11.3 11.3 0.00 0.00 0.00 86 1005.7
20190424052006 10 100 11.3 11.3 0.00 0.00 0.00 86 1005.7
20190424051506 10 100 11.3 11.3 0.00 0.00 0.00 86 1005.7
20190424051007 10 100 11.3 19.3 0.00 0.00 0.00 86 1005.7
20190424050006 10 90 19.3 19.3 0.00 0.00 0.00 86 1005.7
20190424045507 10 90 19.3 19.3 0.00 0.00 0.00 86 1004.7
20190424045007 10 90 19.3 19.3 0.00 0.00 0.00 86 1004.7
20190424044507 10 90 19.3 19.3 0.00 0.00 0.00 86 1004.7
20190424044007 10 90 19.3 19.3 0.00 0.00 0.00 86 1004.7
20190424043507 10 90 19.3 19.3 0.00 0.00 0.00 86 1004.7
20190424043006 10 100 19.3 19.3 0.00 0.00 0.00 86 1004.7
20190424042506 10 100 19.3 19.3 0.00 0.00 0.00 86 1004.7
20190424042007 10 100 19.3 19.3 0.00 0.00 0.00 86 1004.7
20190424041506 10 100 19.3 19.3 0.00 0.00 0.00 85 1004.7
20190424041007 10 100 19.3 19.3 0.00 0.00 0.00 85 1004.7
20190424040006 10 100 19.3 19.3 0.00 0.00 0.00 85 1004.7
20190424035506 10 100 19.3 19.3 0.00 0.00 0.00 85 1004.7
20190424035006 10 100 19.3 19.3 0.00 0.00 0.00 85 1004.7
20190424034506 10 100 19.3 19.3 0.00 0.00 0.00 85 1004.7
20190424034006 10 100 19.3 19.3 0.00 0.00 0.00 85 1004.7
20190424033506 10 100 19.3 20.9 0.00 0.00 0.00 85 1004.7
20190424033006 10 100 20.9 20.9 0.00 0.00 0.00 85 1004.7
20190424032507 10 100 20.9 20.9 0.00 0.00 0.00 84 1004.7
20190424032006 11 100 20.9 20.9 0.00 0.00 0.00 84 1004.7
20190424031507 11 100 20.9 20.9 0.00 0.00 0.00 84 1004.7
20190424031007 11 100 20.9 20.9 0.00 0.00 0.00 84 1004.7
20190424030007 11 110 19.3 19.3 0.00 0.00 0.00 84 1004.7
20190424025507 11 110 19.3 19.3 0.00 0.00 0.00 84 1004.7
20190424025007 11 110 19.3 19.3 0.00 0.00 0.00 84 1004.7
20190424024507 11 110 19.3 19.3 0.00 0.00 0.00 83 1004.7
20190424024006 11 110 19.3 19.3 0.00 0.00 0.00 83 1004.7
20190424023506 11 110 19.3 20.9 0.00 0.00 0.00 82 1004.7
20190424023006 11 110 20.9 20.9 0.00 0.00 0.00 82 1004.7
20190424022506 11 110 20.9 20.9 0.00 0.00 0.00 82 1004.7
20190424022007 11 110 20.9 20.9 0.00 0.00 0.00 82 1004.7
20190424021507 11 110 20.9 20.9 0.00 0.00 0.00 82 1004.7
20190424021007 11 110 20.9 22.5 0.00 0.00 0.00 82 1005.7
20190424020006 11 100 22.5 22.5 0.00 0.00 0.00 81 1005.7
20190424015506 11 100 22.5 22.5 0.00 0.00 0.00 81 1004.7
20190424015006 11 100 22.5 22.5 0.00 0.00 0.00 81 1004.7
20190424014506 11 100 22.5 22.5 0.00 0.00 0.00 81 1004.7
20190424014006 11 100 22.5 22.5 0.00 0.00 0.00 81 1004.7
20190424013507 11 100 22.5 22.5 0.00 0.00 0.00 81 1004.7
20190424013006 11 100 22.5 22.5 0.00 0.00 0.00 80 1004.7
20190424012507 11 100 22.5 22.5 0.00 0.00 0.00 80 1004.7
20190424012006 11 100 22.5 22.5 0.00 0.00 0.00 79 1004.7
20190424011506 11 100 22.5 22.5 0.00 0.00 0.00 79 1004.7
20190424011006 11 100 22.5 22.5 0.00 0.00 0.00 79 1004.7
20190424010006 11 100 22.5 22.5 0.00 0.00 0.00 78 1004.7
20190424005506 11 100 22.5 22.5 0.00 0.00 0.00 78 1004.7
20190424005007 11 100 22.5 22.5 0.00 0.00 0.00 78 1004.7
20190424004505 11 100 22.5 22.5 0.00 0.00 0.00 78 1004.7
20190424004007 11 100 22.5 22.5 0.00 0.00 0.00 78 1004.7
20190424003506 11 100 22.5 22.5 0.00 0.00 0.00 78 1004.7
20190424003007 11 100 20.9 20.9 0.00 0.00 0.00 78 1004.7
20190424002506 11 100 20.9 20.9 0.00 0.00 0.00 78 1005.7
20190424002006 11 100 20.9 20.9 0.00 0.00 0.00 77 1005.7
20190424001506 11 100 20.9 20.9 0.00 0.00 0.00 77 1005.7
20190424001006 11 100 20.9 24.1 0.00 0.00 0.00 77 1005.7
20190424000006 11 110 24.1 24.1 0.00 0.00 0.00 77 1005.7
20190423235505 12 110 24.1 24.1 0.00 0.00 0.00 76 1005.7
20190423235006 12 110 24.1 24.1 0.00 0.00 0.00 76 1005.7
20190423234506 12 110 24.1 24.1 0.00 0.00 0.00 76 1005.7
20190423234006 12 110 24.1 24.1 0.00 0.00 0.00 76 1005.7
20190423233506 12 110 24.1 27.4 0.00 0.00 0.00 76 1005.7
20190423233007 12 100 27.4 27.4 0.00 0.00 0.00 76 1005.7
20190423232506 12 100 27.4 27.4 0.00 0.00 0.00 75 1005.7
20190423232006 12 100 27.4 27.4 0.00 0.00 0.00 75 1005.7
20190423231506 12 100 27.4 27.4 0.00 0.00 0.00 75 1005.7
20190423231006 12 100 27.4 27.4 0.00 0.00 0.00 75 1005.7
20190423230006 12 110 25.7 25.7 0.00 0.00 0.00 75 1005.7
20190423225505 12 110 25.7 25.7 0.00 0.00 0.00 74 1005.7
20190423225006 12 110 25.7 25.7 0.00 0.00 0.00 74 1005.7
20190423224505 12 110 25.7 25.7 0.00 0.00 0.00 74 1005.7
20190423224006 12 110 25.7 25.7 0.00 0.00 0.00 74 1005.7
20190423223506 12 110 25.7 27.4 0.00 0.00 0.00 74 1005.7
20190423223007 12 100 27.4 27.4 0.00 0.00 0.00 73 1005.7
20190423222505 12 100 27.4 27.4 0.00 0.00 0.00 73 1005.7
20190423222007 12 100 27.4 27.4 0.00 0.00 0.00 73 1005.7
20190423221506 12 100 24.1 24.1 0.00 0.00 0.00 73 1005.7
20190423221006 12 100 24.1 24.1 0.00 0.00 0.00 73 1005.7
20190423220005 12 100 24.1 24.1 0.00 0.00 0.00 73 1005.7
20190423215506 12 100 24.1 24.1 0.00 0.00 0.00 73 1005.7
20190423215006 12 100 24.1 24.1 0.00 0.00 0.00 73 1005.7
20190423214505 12 100 24.1 24.1 0.00 0.00 0.00 72 1005.7
20190423214006 12 100 24.1 24.1 0.00 0.00 0.00 72 1005.7
20190423213506 12 100 24.1 24.1 0.00 0.00 0.00 72 1005.7
20190423213006 12 100 24.1 24.1 0.00 0.00 0.00 72 1005.7
20190423212506 12 100 24.1 24.1 0.00 0.00 0.00 72 1005.7
20190423212006 12 100 24.1 24.1 0.00 0.00 0.00 71 1005.7
20190423211506 12 100 24.1 24.1 0.00 0.00 0.00 71 1005.7
20190423211006 12 100 24.1 27.4 0.00 0.00 0.00 71 1005.7
20190423210006 12 110 27.4 27.4 0.00 0.00 0.00 71 1005.7
20190423205505 12 110 27.4 27.4 0.00 0.00 0.00 70 1005.7
20190423205007 12 110 27.4 27.4 0.00 0.00 0.00 70 1005.7
20190423204506 12 110 27.4 27.4 0.00 0.00 0.00 70 1005.7
20190423204006 12 110 27.4 27.4 0.00 0.00 0.00 70 1005.7
20190423203506 12 110 27.4 27.4 0.00 0.00 0.00 69 1005.7
20190423203006 12 110 27.4 27.4 0.00 0.00 0.00 69 1005.7
20190423202505 12 110 27.4 27.4 0.00 0.00 0.00 69 1006.7
20190423202006 12 110 27.4 27.4 0.00 0.00 0.00 69 1006.7
20190423201505 12 110 27.4 27.4 0.00 0.00 0.00 67 1006.7
20190423201006 12 110 27.4 32.2 0.00 0.00 0.00 67 1006.7
20190423200009 13 110 32.2 32.2 0.00 0.00 0.00 67 1006.7
20190423195505 13 110 32.2 32.2 0.00 0.00 0.00 66 1006.7
20190423195006 13 110 32.2 32.2 0.00 0.00 0.00 66 1006.7
20190423194506 13 110 32.2 32.2 0.00 0.00 0.00 65 1006.7
20190423194006 13 110 32.2 32.2 0.00 0.00 0.00 64 1006.7
20190423193506 13 110 32.2 32.2 0.00 0.00 0.00 64 1006.7
20190423193007 13 120 29.0 29.0 0.00 0.00 0.00 63 1006.7
20190423192506 13 120 29.0 29.0 0.00 0.00 0.00 63 1006.7
20190423192006 13 120 29.0 29.0 0.00 0.00 0.00 63 1006.7
20190423191505 13 120 29.0 29.0 0.00 0.00 0.00 62 1006.7
20190423191006 13 120 29.0 32.2 0.00 0.00 0.00 62 1006.7
20190423190006 13 110 32.2 32.2 0.00 0.00 0.00 60 1006.7
20190423185505 13 110 32.2 32.2 0.00 0.00 0.00 59 1006.7
20190423185006 14 110 32.2 32.2 0.00 0.00 0.00 58 1006.7
20190423184506 14 110 32.2 32.2 0.00 0.00 0.00 58 1006.7
20190423184006 14 110 32.2 32.2 0.00 0.00 0.00 57 1006.7
20190423183506 14 110 32.2 37.0 0.00 0.00 0.00 57 1006.7
20190423183007 14 120 37.0 37.0 0.00 0.00 0.00 56 1006.7
20190423182506 15 120 37.0 37.0 0.00 0.00 0.00 54 1006.7
20190423182006 15 120 37.0 37.0 0.00 0.00 0.00 54 1006.7
20190423181506 15 120 37.0 37.0 0.00 0.00 0.00 53 1006.7
20190423181005 15 120 37.0 41.8 0.00 0.00 0.00 52 1006.7
20190423180006 15 120 41.8 41.8 0.00 0.00 0.00 50 1006.7
20190423175507 15 120 41.8 41.8 0.00 0.00 0.00 49 1006.7
20190423175007 16 120 41.8 41.8 0.00 0.00 0.00 49 1006.7
20190423174507 16 120 41.8 41.8 0.00 0.00 0.00 48 1006.7
20190423174006 16 120 41.8 41.8 0.00 0.00 0.00 47 1005.7
20190423173506 16 120 41.8 70.8 0.00 0.00 0.00 47 1005.7
20190423173005 16 120 41.8 70.8 0.00 0.00 0.00 46 1005.7
20190423172505 16 120 41.8 70.8 0.00 0.00 0.00 46 1006.7
20190423172006 17 120 41.8 70.8 0.00 0.00 0.00 45 1006.7
20190423171507 17 120 41.8 70.8 0.00 0.00 0.00 45 1006.7
20190423171006 17 120 41.8 70.8 0.00 0.00 0.00 45 1006.7
20190423170007 17 110 40.2 40.2 0.00 0.00 0.00 45 1006.7
20190423165506 17 110 40.2 40.2 0.00 0.00 0.00 45 1006.7
20190423165006 17 110 40.2 40.2 0.00 0.00 0.00 45 1006.7
20190423164506 18 110 40.2 40.2 0.00 0.00 0.00 45 1006.7
20190423164006 18 110 40.2 40.2 0.00 0.00 0.00 45 1006.7
20190423163505 18 110 40.2 41.8 0.00 0.00 0.00 45 1006.7
20190423163006 18 110 41.8 41.8 0.00 0.00 0.00 45 1006.7
20190423162505 18 110 41.8 41.8 0.00 0.00 0.00 45 1006.7
20190423162006 18 110 41.8 41.8 0.00 0.00 0.00 45 1006.7
20190423161505 18 110 41.8 41.8 0.00 0.00 0.00 45 1006.7
20190423161005 18 110 41.8 41.8 0.00 0.00 0.00 44 1006.7
20190423160005 18 120 40.2 40.2 0.00 0.00 0.00 44 1006.7
20190423155506 18 120 40.2 40.2 0.00 0.00 0.00 44 1006.7
20190423155006 18 120 40.2 40.2 0.00 0.00 0.00 44 1006.7
20190423154506 18 120 40.2 40.2 0.00 0.00 0.00 44 1006.7
20190423154005 18 120 40.2 40.2 0.00 0.00 0.00 44 1006.7
20190423153507 18 120 40.2 40.2 0.00 0.00 0.00 44 1006.7
20190423153006 18 100 37.0 37.0 0.00 0.00 0.00 43 1006.7
20190423152505 18 100 37.0 37.0 0.00 0.00 0.00 43 1005.7
20190423152006 18 100 37.0 37.0 0.00 0.00 0.00 43 1005.7
20190423151506 18 100 37.0 37.0 0.00 0.00 0.00 43 1005.7
20190423151006 19 100 37.0 37.0 0.00 0.00 0.00 43 1005.7
20190423150005 19 110 37.0 37.0 0.00 0.00 0.00 43 1005.7
20190423145505 19 110 37.0 37.0 0.00 0.00 0.00 43 1005.7
20190423145006 19 110 37.0 37.0 0.00 0.00 0.00 43 1005.7
20190423144505 19 110 37.0 37.0 0.00 0.00 0.00 43 1005.7
20190423144005 19 110 37.0 37.0 0.00 0.00 0.00 43 1006.7
20190423143505 19 110 37.0 45.1 0.00 0.00 0.00 43 1006.7
20190423143006 19 100 45.1 45.1 0.00 0.00 0.00 43 1006.7
20190423142505 19 100 45.1 45.1 0.00 0.00 0.00 43 1006.7
20190423142005 19 100 45.1 45.1 0.00 0.00 0.00 43 1006.7
20190423141506 19 100 45.1 45.1 0.00 0.00 0.00 43 1006.7
20190423141005 19 100 45.1 45.1 0.00 0.00 0.00 42 1006.7
20190423140005 19 110 45.1 45.1 0.00 0.00 0.00 43 1006.7
20190423135512 19 110 45.1 45.1 0.00 0.00 0.00 43 1006.7
20190423135006 19 110 45.1 45.1 0.00 0.00 0.00 43 1006.7
20190423134506 19 110 45.1 45.1 0.00 0.00 0.00 43 1006.7
20190423134005 19 110 45.1 45.1 0.00 0.00 0.00 43 1007.7
20190423133505 19 110 45.1 46.7 0.00 0.00 0.00 43 1007.7
20190423133005 19 100 46.7 46.7 0.00 0.00 0.00 43 1007.7
20190423132505 19 100 46.7 46.7 0.00 0.00 0.00 43 1007.7
20190423132005 19 100 46.7 46.7 0.00 0.00 0.00 42 1007.7
20190423131506 19 100 46.7 46.7 0.00 0.00 0.00 42 1007.7
20190423131005 20 100 46.7 46.7 0.00 0.00 0.00 43 1007.7
20190423130005 19 100 41.8 41.8 0.00 0.00 0.00 43 1007.7
20190423125505 19 100 41.8 41.8 0.00 0.00 0.00 43 1007.7
20190423125007 19 100 41.8 41.8 0.00 0.00 0.00 43 1007.7
20190423124506 19 100 41.8 41.8 0.00 0.00 0.00 43 1007.7
20190423124006 19 100 41.8 41.8 0.00 0.00 0.00 43 1008.7
20190423123505 19 100 41.8 41.8 0.00 0.00 0.00 43 1008.7
20190423123006 19 110 41.8 41.8 0.00 0.00 0.00 43 1008.7
20190423122505 19 110 41.8 41.8 0.00 0.00 0.00 43 1008.7
20190423122005 20 110 41.8 41.8 0.00 0.00 0.00 43 1008.7